Weather History for KERY - October, 2013

Change the Weather History Date:

Thursday, October 3, 2013

  Actual Average Record
Temperature  
Mean Temperature 50 °F -  
Max Temperature 57 °F 57 °F 77 °F (1919)
Min Temperature 42 °F 40 °F 25 °F (1936)
Degree Days  
Heating Degree Days 16    
Moisture  
Dew Point 47 °F    
Average Humidity 89    
Maximum Humidity 98    
Minimum Humidity 80    
Precipitation  
Precipitation 0.33 in - - ()
Sea Level Pressure  
Sea Level Pressure 30.01 in    
Wind  
Wind Speed 4 mph (NE)    
Max Wind Speed 13 mph    
Max Gust Speed 18 mph    
Visibility 9 miles    
Events Rain    
Averages and records for this station are not official NWS values.
T = Trace of Precipitation, MM = Missing Value Source: NWS Daily Summary

Daily Weather History Graph

Daily Weather History Graph

Search for Another Location

Airport or City:

Trip Planner

Search our weather history database for the weather conditions in past years. The results will help you decide how hot, cold, wet, or windy it might be!

Date:

Astronomy

Oct. 03, 2013 Rise Set
Actual Time 7:43 AM EDT 7:17 PM EDT
Civil Twilight 7:13 AM EDT 7:47 PM EDT
Nautical Twilight 6:38 AM EDT 8:22 PM EDT
Astronomical Twilight 6:03 AM EDT 8:57 PM EDT
Moon 6:12 AM EDT (10/3) 6:26 PM EDT (10/3)
Length of Visible Light 12h 33m
Length of Day
11h 34m
Waning Crescent, 2% of the Moon is Illuminated
Oct 3
Waning Crescent
Oct 4
New
Oct 11
First Quarter
Oct 18
Full
Oct 26
Last Quarter

Hourly Weather History & Observations

Time (EDT) Temp. Windchill Dew Point Humidity Pressure Visibility Wind Dir Wind Speed Gust Speed Precip Events Conditions
12:17 AM 44.6 °F - 41.2 °F 88% 30.06 in 10.0 mi Calm Calm - N/A   Clear
12:36 AM 45.0 °F - 41.9 °F 89% 30.06 in 10.0 mi Calm Calm - N/A   Clear
12:57 AM 43.9 °F - 41.5 °F 91% 30.06 in 10.0 mi Calm Calm - N/A   Clear
1:16 AM 44.6 °F - 41.5 °F 89% 30.05 in 10.0 mi Calm Calm - N/A   Clear
1:37 AM 42.8 °F - 40.6 °F 92% 30.05 in 10.0 mi Calm Calm - N/A   Clear
1:57 AM 42.1 °F - 40.5 °F 94% 30.06 in 10.0 mi Calm Calm - N/A   Clear
2:17 AM 43.7 °F - 42.1 °F 94% 30.05 in 10.0 mi Calm Calm - N/A   Clear
2:37 AM 43.9 °F - 41.9 °F 93% 30.05 in 10.0 mi Calm Calm - N/A   Clear
2:57 AM 43.7 °F - 41.7 °F 93% 30.05 in 10.0 mi Calm Calm - N/A   Scattered Clouds
3:17 AM 45.0 °F - 42.8 °F 92% 30.04 in 10.0 mi Calm Calm - N/A   Mostly Cloudy
3:37 AM 45.0 °F - 43.2 °F 93% 30.04 in 10.0 mi Calm Calm - N/A   Scattered Clouds
3:56 AM 45.0 °F - 43.0 °F 93% 30.04 in 10.0 mi Calm Calm - N/A   Scattered Clouds
4:17 AM 47.8 °F - 45.7 °F 92% 30.04 in 10.0 mi Calm Calm - N/A   Overcast
4:37 AM 48.4 °F - 46.4 °F 93% 30.04 in 10.0 mi Calm Calm - N/A   Overcast
4:56 AM 48.4 °F - 46.8 °F 94% 30.04 in 10.0 mi Calm Calm - N/A   Overcast
5:17 AM 43.7 °F 41.1 °F 42.3 °F 95% 30.05 in 10.0 mi North 4.6 mph - N/A   Overcast
5:37 AM 44.4 °F 42.0 °F 43.2 °F 95% 30.05 in 10.0 mi NE 4.6 mph - N/A   Overcast
5:56 AM 45.5 °F - 44.8 °F 97% 30.05 in 10.0 mi Calm Calm - N/A   Overcast
6:17 AM 46.2 °F 45.0 °F 45.7 °F 98% 30.05 in 10.0 mi SE 3.5 mph - N/A   Overcast
6:36 AM 47.7 °F - 47.1 °F 98% 30.04 in 10.0 mi ESE 5.8 mph - N/A   Overcast
6:57 AM 46.8 °F - 44.6 °F 92% 30.04 in 10.0 mi Calm Calm - N/A   Scattered Clouds
7:16 AM 48.4 °F - 44.2 °F 86% 30.04 in 10.0 mi ESE 11.5 mph - N/A   Scattered Clouds
7:37 AM 48.2 °F - 45.0 °F 89% 30.04 in 10.0 mi ESE 5.8 mph - N/A   Mostly Cloudy
7:56 AM 47.5 °F - 44.8 °F 90% 30.03 in 10.0 mi ENE 4.6 mph - N/A   Scattered Clouds
8:17 AM 46.4 °F - 43.9 °F 91% 30.03 in 10.0 mi Calm Calm - N/A   Scattered Clouds
8:37 AM 46.0 °F 43.9 °F 44.1 °F 93% 30.03 in 10.0 mi NE 4.6 mph - N/A   Scattered Clouds
8:56 AM 46.4 °F 44.3 °F 44.4 °F 93% 30.02 in 10.0 mi ENE 4.6 mph - N/A   Clear
9:17 AM 48.2 °F - 45.0 °F 89% 30.02 in 10.0 mi NE 6.9 mph - N/A   Scattered Clouds
9:37 AM 47.7 °F - 44.8 °F 90% 30.03 in 10.0 mi NNE 5.8 mph - N/A   Mostly Cloudy
9:57 AM 49.1 °F - 45.1 °F 86% 30.04 in 10.0 mi Calm Calm - N/A Rain Light Rain
10:17 AM 49.1 °F - 46.0 °F 89% 30.03 in 10.0 mi ENE 4.6 mph - N/A Rain Light Rain
10:37 AM 49.6 °F - 46.0 °F 87% 30.02 in 10.0 mi ENE 6.9 mph - 0.01 in Rain Light Rain
10:57 AM 49.6 °F - 46.6 °F 89% 30.00 in 10.0 mi ENE 6.9 mph - 0.03 in Rain Rain
11:16 AM 49.8 °F - 47.1 °F 90% 30.02 in 7.0 mi North 5.8 mph - 0.01 in Rain Rain
11:37 AM 50.2 °F - 48.2 °F 93% 30.01 in 7.0 mi NNE 4.6 mph - 0.04 in Rain Rain
11:57 AM 50.2 °F - 47.8 °F 92% 30.02 in 5.0 mi North 5.8 mph - 0.09 in Rain Heavy Rain
12:16 PM 50.2 °F - 48.7 °F 95% 30.01 in 5.0 mi NNE 6.9 mph - 0.05 in Rain Rain
12:37 PM 50.4 °F - 49.3 °F 96% 30.00 in 7.0 mi North 8.1 mph - 0.09 in Rain Rain
12:57 PM 50.9 °F - 49.1 °F 94% 29.99 in 3.0 mi NNE 10.4 mph - 0.17 in Rain Heavy Rain
1:17 PM 51.1 °F - 48.6 °F 91% 29.99 in 7.0 mi ENE 11.5 mph - 0.04 in Rain Rain
1:37 PM 51.4 °F - 49.3 °F 92% 29.98 in 7.0 mi ENE 11.5 mph - 0.04 in Rain Rain
1:56 PM 52.7 °F - 50.4 °F 92% 29.98 in 10.0 mi ENE 12.7 mph 18.4 mph 0.04 in   Overcast
2:17 PM 54.5 °F - 51.3 °F 89% 29.98 in 10.0 mi ENE 10.4 mph - N/A   Overcast
2:37 PM 55.2 °F - 50.7 °F 85% 29.98 in 10.0 mi ENE 10.4 mph - N/A   Overcast
2:56 PM 55.8 °F - 50.4 °F 82% 29.98 in 10.0 mi NE 8.1 mph - N/A   Overcast
3:17 PM 56.3 °F - 50.4 °F 80% 29.99 in 10.0 mi ENE 9.2 mph - N/A   Overcast
3:37 PM 56.5 °F - 50.5 °F 80% 29.98 in 10.0 mi ENE 10.4 mph - N/A   Overcast
3:56 PM 57.2 °F - 51.3 °F 81% 29.98 in 10.0 mi NE 10.4 mph - N/A   Overcast
4:17 PM 57.2 °F - 51.6 °F 82% 29.97 in 10.0 mi ENE 8.1 mph - N/A   Overcast
4:36 PM 56.7 °F - 51.4 °F 83% 29.98 in 10.0 mi ENE 11.5 mph - N/A   Overcast
4:57 PM 56.3 °F - 51.1 °F 83% 29.98 in 10.0 mi ENE 10.4 mph 18.4 mph N/A   Overcast
5:16 PM 56.5 °F - 51.8 °F 84% 29.97 in 10.0 mi NE 10.4 mph - N/A   Mostly Cloudy
5:37 PM 55.8 °F - 51.1 °F 84% 29.97 in 10.0 mi ENE 9.2 mph - N/A   Mostly Cloudy
5:57 PM 55.8 °F - 51.3 °F 85% 29.97 in 10.0 mi ENE 11.5 mph 17.3 mph N/A   Scattered Clouds
6:17 PM 55.4 °F - 50.7 °F 84% 29.98 in 10.0 mi NE 9.2 mph - N/A   Clear
6:37 PM 54.5 °F - 50.5 °F 86% 29.99 in 10.0 mi ENE 10.4 mph - N/A   Clear
6:56 PM 54.0 °F - 50.2 °F 87% 29.99 in 10.0 mi ENE 9.2 mph - N/A   Clear
7:17 PM 53.6 °F - 49.6 °F 86% 29.99 in 10.0 mi ENE 8.1 mph - N/A   Mostly Cloudy
7:37 PM 53.1 °F - 49.5 °F 88% 30.00 in 10.0 mi NE 6.9 mph - N/A   Overcast
7:57 PM 52.9 °F - 49.6 °F 89% 29.99 in 10.0 mi NE 5.8 mph - N/A   Overcast
8:17 PM 52.9 °F - 49.1 °F 87% 29.99 in 4.0 mi NE 6.9 mph - N/A   Overcast
8:37 PM 52.7 °F - 49.1 °F 88% 29.99 in 3.0 mi NE 6.9 mph - N/A   Overcast
8:57 PM 52.7 °F - 49.1 °F 88% 29.99 in 10.0 mi NE 6.9 mph - N/A   Overcast
9:17 PM 52.7 °F - 48.7 °F 86% 29.99 in 10.0 mi ENE 6.9 mph - N/A   Overcast
9:36 PM 52.7 °F - 49.1 °F 88% 29.99 in 10.0 mi ENE 6.9 mph - N/A   Overcast
9:57 PM 52.5 °F - 49.1 °F 88% 29.99 in 10.0 mi ENE 5.8 mph - N/A   Mostly Cloudy
10:17 PM 52.2 °F - 49.1 °F 89% 30.00 in 10.0 mi ENE 5.8 mph - N/A   Mostly Cloudy
10:36 PM 52.7 °F - 48.6 °F 86% 30.00 in 10.0 mi ENE 4.6 mph - N/A   Overcast
10:57 PM 52.7 °F - 48.4 °F 85% 29.99 in 10.0 mi NE 3.5 mph - N/A   Overcast
11:17 PM 52.7 °F - 48.2 °F 85% 29.99 in 10.0 mi NNE 5.8 mph - N/A   Overcast
11:37 PM 52.7 °F - 48.2 °F 85% 29.99 in 10.0 mi NNE 4.6 mph - N/A   Overcast